Voltar ao catálogo

STARLINK-34650

AtivoComunicaçõesVLEO
NORAD 66258·PAYLOAD·🇺🇸 United States

Lançado Oct 29, 2025 de Cape Canaveral Space Force Station

Loading…

Próximas Passagens (próximas 24 horas)

TLE

AtualizadoSource: CelesTrak SupGP

Época: Sep 14, 2026, 15:55 UTC

1 66258C 25245AA  26257.66368056  .00014904  00000+0  44016-3 0  2579
2 66258  53.1587 124.7627 0001306  92.1789  83.1678 15.34396197    15

Acompanhe STARLINK-34650 em tempo real com AllMySat

Download on the App Store